Overview Statistics Trail Chart Weather Telemetry Raw packets
 

This is the latest recevied weather packets stored in our database for station/object ZL1CTS-13. If no packets are shown the sender has not sent any weather packets the latest 10 day(s).

<< 133 134 135 136 137 138 >>
Time Temp. Humidity Pressure Rain* Wind** Luminosity Snow
1787805304 16.67° C 90% 1017.3 hPa 0 mm - - -
1787805006 16.67° C 90% 1017.2 hPa 0 mm - - -
1787804704 17.22° C 89% 1017.2 hPa 0 mm - - -
1787804406 17.22° C 88% 1017.1 hPa 0 mm - - -
1787804104 17.22° C 88% 1017.2 hPa 0 mm - - -
1787803806 17.22° C 88% 1017.3 hPa 0 mm - - -
1787803503 17.22° C 89% 1017.3 hPa 0 mm - - -
1787803207 17.22° C 89% 1017.3 hPa 0 mm - - -
1787802903 17.22° C 89% 1017.3 hPa 0 mm - - -
1787802607 16.67° C 89% 1017.3 hPa 0 mm - - -
1787802304 17.22° C 85% 1017.4 hPa 0 mm - - -
1787802004 17.78° C 82% 1017.3 hPa 0 mm - - -
1787801704 18.89° C 83% 1017.3 hPa 0 mm - - -
1787801404 18.89° C 84% 1017.3 hPa 0 mm - - -
1787801104 18.33° C 84% 1017.4 hPa 0 mm - - -
1787800804 18.89° C 83% 1017.2 hPa 0 mm - - -
1787800504 18.89° C 83% 1017.4 hPa 0 mm - - -
1787800207 18.33° C 82% 1017.5 hPa 0 mm - - -
1787799904 18.89° C 78% 1017.4 hPa 0 mm - - -
1787799607 19.44° C 80% 1017.4 hPa 0 mm - - -
1787799303 18.89° C 80% 1017.5 hPa 0 mm - - -
1787799004 18.89° C 81% 1017.5 hPa 0 mm - - -
1787798703 18.89° C 80% 1017.5 hPa 0 mm - - -
1787798407 19.44° C 80% 1017.5 hPa 0 mm - - -
1787798104 19.44° C 80% 1017.4 hPa 0 mm - - -

* Rain latest hour (hover to see other rain measurements)
** Current wind speed in m/s (hover to see current wind gust speed)